Time,TemperatureF,DewpointF,PressureIn,WindDirection,WindDirectionDegrees,WindSpeedMPH,WindSpeedGustMPH,Humidity,HourlyPrecipIn,Conditions,Clouds,dailyrainin,SoftwareType,DateUTC
2013-04-22 00:02:00,20.0,17.0,-100.00,NNW,348,14.0,20.0,86,0.00,,,0.04,,2013-04-22 06:02:00,
2013-04-22 00:11:00,20.0,17.0,-100.00,NNW,348,14.0,20.0,86,0.00,,,0.04,,2013-04-22 06:11:00,
2013-04-22 00:42:00,21.0,14.0,-100.00,NNW,346,14.0,21.0,75,0.00,,,0.04,,2013-04-22 06:42:00,
2013-04-22 00:52:00,21.0,14.0,-100.00,NNW,346,14.0,21.0,75,0.00,,,0.04,,2013-04-22 06:52:00,
2013-04-22 01:01:00,21.0,14.0,-100.00,NNW,346,14.0,21.0,75,0.00,,,0.04,,2013-04-22 07:01:00,
2013-04-22 01:11:00,21.0,14.0,-100.00,NNW,346,14.0,21.0,75,0.00,,,0.04,,2013-04-22 07:11:00,
2013-04-22 01:42:00,20.0,14.0,-100.00,NNW,342,12.0,19.0,77,0.00,,,0.04,,2013-04-22 07:42:00,
2013-04-22 01:52:00,20.0,14.0,-100.00,NNW,342,12.0,19.0,77,0.00,,,0.04,,2013-04-22 07:52:00,
2013-04-22 02:01:00,20.0,14.0,-100.00,NNW,342,12.0,19.0,77,0.00,,,0.04,,2013-04-22 08:01:00,
2013-04-22 02:11:00,20.0,14.0,-100.00,NNW,342,12.0,19.0,77,0.00,,,0.04,,2013-04-22 08:11:00,
2013-04-22 02:42:00,20.0,15.0,-100.00,NNW,345,13.0,20.0,79,0.00,,,0.04,,2013-04-22 08:42:00,
2013-04-22 02:52:00,20.0,15.0,-100.00,NNW,345,13.0,20.0,79,0.00,,,0.04,,2013-04-22 08:52:00,
2013-04-22 03:01:00,20.0,15.0,-100.00,NNW,345,13.0,20.0,79,0.00,,,0.04,,2013-04-22 09:01:00,
2013-04-22 03:11:00,20.0,15.0,-100.00,NNW,345,13.0,20.0,79,0.00,,,0.04,,2013-04-22 09:11:00,
2013-04-22 03:42:00,20.0,14.0,-100.00,North,2,15.0,21.0,76,0.00,,,0.04,,2013-04-22 09:42:00,
2013-04-22 03:52:00,20.0,14.0,-100.00,North,2,15.0,21.0,76,0.00,,,0.04,,2013-04-22 09:52:00,
2013-04-22 04:03:00,20.0,14.0,-100.00,North,2,15.0,21.0,76,0.00,,,0.04,,2013-04-22 10:03:00,
2013-04-22 04:12:00,20.0,14.0,-100.00,North,2,15.0,21.0,76,0.00,,,0.04,,2013-04-22 10:12:00,
2013-04-22 05:12:00,20.0,15.0,-100.00,NNW,344,12.0,17.0,81,0.00,,,0.04,,2013-04-22 11:12:00,
2013-04-22 05:42:00,20.0,14.0,-100.00,NNW,345,12.0,17.0,78,0.00,,,0.04,,2013-04-22 11:42:00,
2013-04-22 05:52:00,20.0,14.0,-100.00,NNW,345,12.0,17.0,78,0.00,,,0.04,,2013-04-22 11:52:00,
2013-04-22 06:01:00,20.0,14.0,-100.00,NNW,345,12.0,17.0,78,0.00,,,0.04,,2013-04-22 12:01:00,
2013-04-22 06:12:00,20.0,14.0,-100.00,NNW,345,12.0,17.0,78,0.00,,,0.04,,2013-04-22 12:12:00,
2013-04-22 06:42:00,20.0,13.0,-100.00,NNW,345,12.0,17.0,75,0.00,,,0.04,,2013-04-22 12:42:00,
2013-04-22 06:52:00,20.0,13.0,-100.00,NNW,345,12.0,17.0,75,0.00,,,0.04,,2013-04-22 12:52:00,
2013-04-22 07:01:00,20.0,13.0,-100.00,NNW,345,12.0,17.0,75,0.00,,,0.04,,2013-04-22 13:01:00,
2013-04-22 07:11:00,20.0,13.0,-100.00,NNW,345,12.0,17.0,75,0.00,,,0.04,,2013-04-22 13:11:00,
2013-04-22 07:41:00,20.0,13.0,-100.00,NNW,344,11.0,16.0,76,0.00,,,0.03,,2013-04-22 13:41:00,
2013-04-22 07:53:00,20.0,13.0,-100.00,NNW,344,11.0,16.0,76,0.00,,,0.03,,2013-04-22 13:53:00,
2013-04-22 08:02:00,20.0,13.0,-100.00,NNW,344,11.0,16.0,76,0.00,,,0.03,,2013-04-22 14:02:00,
2013-04-22 08:11:00,20.0,13.0,-100.00,NNW,344,11.0,16.0,76,0.00,,,0.03,,2013-04-22 14:11:00,
2013-04-22 08:42:00,22.0,13.0,-100.00,North,356,11.0,16.0,68,0.00,,,0.01,,2013-04-22 14:42:00,
2013-04-22 08:52:00,22.0,13.0,-100.00,North,356,11.0,16.0,68,0.00,,,0.01,,2013-04-22 14:52:00,
2013-04-22 09:01:00,22.0,13.0,-100.00,North,356,11.0,16.0,68,0.00,,,0.01,,2013-04-22 15:01:00,
2013-04-22 09:11:00,22.0,13.0,-100.00,North,356,11.0,16.0,68,0.00,,,0.01,,2013-04-22 15:11:00,
2013-04-22 09:42:00,24.0,14.0,-100.00,North,3,12.0,18.0,64,0.00,,,0.01,,2013-04-22 15:42:00,
2013-04-22 09:53:00,24.0,14.0,-100.00,North,3,12.0,18.0,64,0.00,,,0.01,,2013-04-22 15:53:00,
2013-04-22 10:02:00,24.0,14.0,-100.00,North,3,12.0,18.0,64,0.00,,,0.01,,2013-04-22 16:02:00,
2013-04-22 10:12:00,24.0,14.0,-100.00,North,3,12.0,18.0,64,0.00,,,0.01,,2013-04-22 16:12:00,
2013-04-22 10:42:00,26.0,16.0,-100.00,North,354,13.0,19.0,65,0.00,,,0.01,,2013-04-22 16:42:00,
2013-04-22 10:52:00,26.0,16.0,-100.00,North,354,13.0,19.0,65,0.00,,,0.01,,2013-04-22 16:52:00,
2013-04-22 11:02:00,26.0,16.0,-100.00,North,354,13.0,19.0,65,0.00,,,0.01,,2013-04-22 17:02:00,
2013-04-22 11:12:00,26.0,16.0,-100.00,North,354,13.0,19.0,65,0.00,,,0.01,,2013-04-22 17:12:00,
2013-04-22 11:52:00,28.0,16.0,-100.00,NNW,346,13.0,20.0,62,0.00,,,0.01,,2013-04-22 17:52:00,
2013-04-22 12:01:00,28.0,16.0,-100.00,NNW,346,13.0,20.0,62,0.00,,,0.01,,2013-04-22 18:01:00,
2013-04-22 12:12:00,28.0,16.0,-100.00,NNW,346,13.0,20.0,62,0.00,,,0.01,,2013-04-22 18:12:00,
2013-04-22 12:42:00,31.0,14.0,-100.00,North,1,13.0,20.0,48,0.00,,,0.01,,2013-04-22 18:42:00,
2013-04-22 12:52:00,31.0,14.0,-100.00,North,1,13.0,20.0,48,0.00,,,0.01,,2013-04-22 18:52:00,
2013-04-22 13:01:00,31.0,14.0,-100.00,North,1,13.0,20.0,48,0.00,,,0.01,,2013-04-22 19:01:00,
2013-04-22 13:11:00,31.0,14.0,-100.00,North,1,13.0,20.0,48,0.00,,,0.01,,2013-04-22 19:11:00,
2013-04-22 13:42:00,32.0,13.0,-100.00,North,350,14.0,23.0,45,0.00,,,0.01,,2013-04-22 19:42:00,
2013-04-22 13:52:00,32.0,13.0,-100.00,North,350,14.0,23.0,45,0.00,,,0.01,,2013-04-22 19:52:00,
2013-04-22 14:02:00,32.0,13.0,-100.00,North,350,14.0,23.0,45,0.00,,,0.01,,2013-04-22 20:02:00,
2013-04-22 14:11:00,32.0,13.0,-100.00,North,350,14.0,23.0,45,0.00,,,0.01,,2013-04-22 20:11:00,
2013-04-22 14:42:00,34.0,13.0,-100.00,North,351,14.0,24.0,41,0.00,,,0.01,,2013-04-22 20:42:00,
2013-04-22 14:52:00,34.0,13.0,-100.00,North,351,14.0,24.0,41,0.00,,,0.01,,2013-04-22 20:52:00,
2013-04-22 15:01:00,34.0,13.0,-100.00,North,351,14.0,24.0,41,0.00,,,0.01,,2013-04-22 21:01:00,
2013-04-22 15:11:00,34.0,13.0,-100.00,North,351,14.0,24.0,41,0.00,,,0.01,,2013-04-22 21:11:00,
2013-04-22 15:42:00,35.0,12.0,-100.00,NNE,15,11.0,18.0,38,0.00,,,0.00,,2013-04-22 21:42:00,
2013-04-22 15:53:00,35.0,12.0,-100.00,NNE,15,11.0,18.0,38,0.00,,,0.00,,2013-04-22 21:53:00,
2013-04-22 16:02:00,35.0,12.0,-100.00,NNE,15,11.0,18.0,38,0.00,,,0.00,,2013-04-22 22:02:00,
2013-04-22 16:12:00,35.0,12.0,-100.00,NNE,15,11.0,18.0,38,0.00,,,0.00,,2013-04-22 22:12:00,
2013-04-22 16:42:00,36.0,10.0,-100.00,NNE,18,9.0,16.0,33,0.00,,,0.00,,2013-04-22 22:42:00,
2013-04-22 16:52:00,36.0,10.0,-100.00,NNE,18,9.0,16.0,33,0.00,,,0.00,,2013-04-22 22:52:00,
2013-04-22 17:02:00,36.0,10.0,-100.00,NNE,18,9.0,16.0,33,0.00,,,0.00,,2013-04-22 23:02:00,
2013-04-22 17:11:00,36.0,10.0,-100.00,NNE,18,9.0,16.0,33,0.00,,,0.00,,2013-04-22 23:11:00,
2013-04-22 17:42:00,37.0,10.0,-100.00,North,8,9.0,17.0,33,0.00,,,0.00,,2013-04-22 23:42:00,
2013-04-22 17:52:00,37.0,10.0,-100.00,North,8,9.0,17.0,33,0.00,,,0.00,,2013-04-22 23:52:00,
2013-04-22 18:01:00,37.0,10.0,-100.00,North,8,9.0,17.0,33,0.00,,,0.00,,2013-04-23 00:01:00,
2013-04-22 18:12:00,37.0,10.0,-100.00,North,8,9.0,17.0,33,0.00,,,0.00,,2013-04-23 00:12:00,
2013-04-22 18:42:00,36.0,12.0,-100.00,NNE,23,8.0,14.0,36,0.00,,,0.00,,2013-04-23 00:42:00,
2013-04-22 18:52:00,36.0,12.0,-100.00,NNE,23,8.0,14.0,36,0.00,,,0.00,,2013-04-23 00:52:00,
2013-04-22 19:01:00,36.0,12.0,-100.00,NNE,23,8.0,14.0,36,0.00,,,0.00,,2013-04-23 01:01:00,
2013-04-22 19:11:00,36.0,12.0,-100.00,NNE,23,8.0,14.0,36,0.00,,,0.00,,2013-04-23 01:11:00,
2013-04-22 19:42:00,35.0,11.0,-100.00,North,358,9.0,13.0,36,0.00,,,0.00,,2013-04-23 01:42:00,
2013-04-22 19:52:00,35.0,11.0,-100.00,North,358,9.0,13.0,36,0.00,,,0.00,,2013-04-23 01:52:00,
2013-04-22 20:01:00,35.0,11.0,-100.00,North,358,9.0,13.0,36,0.00,,,0.00,,2013-04-23 02:01:00,
2013-04-22 20:12:00,35.0,11.0,-100.00,North,358,9.0,13.0,36,0.00,,,0.00,,2013-04-23 02:12:00,
2013-04-22 20:42:00,31.0,11.0,-100.00,North,4,5.0,9.0,43,0.00,,,0.00,,2013-04-23 02:42:00,
2013-04-22 20:52:00,31.0,11.0,-100.00,North,4,5.0,9.0,43,0.00,,,0.00,,2013-04-23 02:52:00,
2013-04-22 21:01:00,31.0,11.0,-100.00,North,4,5.0,9.0,43,0.00,,,0.00,,2013-04-23 03:01:00,
2013-04-22 21:11:00,31.0,11.0,-100.00,North,4,5.0,9.0,43,0.00,,,0.00,,2013-04-23 03:11:00,
2013-04-22 21:43:00,23.0,15.0,-100.00,WSW,241,2.0,3.0,70,0.00,,,0.00,,2013-04-23 03:43:00,
2013-04-22 21:53:00,23.0,15.0,-100.00,WSW,241,2.0,3.0,70,0.00,,,0.00,,2013-04-23 03:53:00,
2013-04-22 22:03:00,23.0,15.0,-100.00,WSW,241,2.0,3.0,70,0.00,,,0.00,,2013-04-23 04:03:00,
2013-04-22 22:12:00,23.0,15.0,-100.00,WSW,241,2.0,3.0,70,0.00,,,0.00,,2013-04-23 04:12:00,
2013-04-22 22:43:00,25.0,14.0,-100.00,NW,314,2.0,4.0,63,0.00,,,0.00,,2013-04-23 04:43:00,
2013-04-22 22:53:00,25.0,14.0,-100.00,NW,314,2.0,4.0,63,0.00,,,0.00,,2013-04-23 04:53:00,
2013-04-22 23:02:00,25.0,14.0,-100.00,NW,314,2.0,4.0,63,0.00,,,0.00,,2013-04-23 05:02:00,
2013-04-22 23:12:00,25.0,14.0,-100.00,NW,314,2.0,4.0,63,0.00,,,0.00,,2013-04-23 05:12:00,
2013-04-22 23:42:00,23.0,13.0,-100.00,NNW,336,2.0,5.0,63,0.00,,,0.00,,2013-04-23 05:42:00,
2013-04-22 23:52:00,23.0,13.0,-100.00,NNW,336,2.0,5.0,63,0.00,,,0.00,,2013-04-23 05:52:00,